Location: Keppel Henge
(44.7900°N, 80.9447°W)
Time: 05:08:48
(UTC-04:00)

NUDT-PHONESAT - Visible Passes

Search period start: 17 October 2018 00:00
Search period end: 27 October 2018 00:00
Orbit: 492 x 509 km, 97.4° (Epoch: 16 October)

Date Brightness Start Highest point End Pass type
(mag) Time Alt. Az. Time Alt. Az. Time Alt. Az.
17 Oct ? 06:51:33 10° NE 06:53:48 15° E 06:56:03 10° SE visible
17 Oct ? 19:03:34 10° S 19:07:13 73° WSW 19:10:55 10° NNW visible
19 Oct ? 19:59:47 10° SW 20:02:07 16° W 20:04:29 10° NW visible
20 Oct ? 19:39:18 10° SSW 19:42:26 26° W 19:45:37 10° NW visible
21 Oct ? 07:06:30 10° NE 07:09:30 22° E 07:12:29 10° SSE visible
21 Oct ? 19:19:16 10° S 19:22:47 45° W 19:26:23 10° NNW visible
22 Oct ? 06:47:49 10° ENE 06:49:47 14° E 06:51:44 10° ESE visible
22 Oct ? 18:59:32 10° S 19:03:12 82° WSW 19:06:56 10° NNW visible
23 Oct ? 20:16:51 10° WSW 20:17:47 11° W 20:18:42 10° WNW visible
24 Oct ? 19:55:27 10° SW 19:58:02 18° W 20:00:38 10° NW visible
25 Oct ? 07:21:38 10° NNE 07:25:04 33° E 07:28:28 10° SSE visible
25 Oct ? 19:35:04 10° SSW 19:38:20 30° W 19:41:37 10° NNW visible
26 Oct ? 07:02:32 10° NE 07:05:23 20° E 07:08:11 10° SE visible
26 Oct ? 19:15:05 10° S 19:18:40 52° W 19:22:19 10° NNW visible
